TimeMST,TemperatureF,Dew PointF,Humidity,Sea Level PressureIn,VisibilityMPH,Wind Direction,Wind SpeedMPH,Gust SpeedMPH,PrecipitationIn,Events,Conditions,WindDirDegrees,DateUTC
12:54 AM,28.9,5.0,36,30.24,10.0,WSW,11.5,-,N/A,,Clear,250,2012-11-14 07:54:00
1:54 AM,27.0,5.0,39,30.24,10.0,WNW,8.1,-,N/A,,Clear,290,2012-11-14 08:54:00
2:54 AM,24.1,5.0,44,30.24,10.0,WNW,9.2,-,N/A,,Clear,300,2012-11-14 09:54:00
3:54 AM,19.0,1.9,47,30.25,10.0,NW,8.1,-,N/A,,Clear,320,2012-11-14 10:54:00
4:54 AM,21.0,3.0,46,30.25,10.0,NW,4.6,-,N/A,,Clear,320,2012-11-14 11:54:00
5:54 AM,21.9,3.0,44,30.28,10.0,WSW,5.8,-,N/A,,Clear,240,2012-11-14 12:54:00
6:54 AM,26.1,5.0,41,30.28,10.0,WSW,6.9,-,N/A,,Clear,250,2012-11-14 13:54:00
7:54 AM,39.0,7.0,27,30.26,10.0,West,11.5,-,N/A,,Clear,260,2012-11-14 14:54:00
8:54 AM,45.0,8.1,22,30.25,10.0,South,3.5,-,N/A,,Clear,170,2012-11-14 15:54:00
9:54 AM,52.0,6.1,16,30.21,10.0,ESE,4.6,-,N/A,,Clear,120,2012-11-14 16:54:00
10:54 AM,55.0,6.1,14,30.16,10.0,ESE,6.9,-,N/A,,Clear,110,2012-11-14 17:54:00
11:54 AM,59.0,5.0,12,30.10,10.0,Variable,4.6,-,N/A,,Clear,0,2012-11-14 18:54:00
12:54 PM,62.1,3.0,9,30.05,10.0,Variable,3.5,-,N/A,,Clear,0,2012-11-14 19:54:00
1:54 PM,63.0,1.9,9,30.04,10.0,East,6.9,-,N/A,,Clear,90,2012-11-14 20:54:00
2:54 PM,64.0,-0.0,8,30.04,10.0,ENE,6.9,-,N/A,,Clear,70,2012-11-14 21:54:00
3:54 PM,57.9,-0.9,9,30.07,10.0,ESE,3.5,-,N/A,,Clear,110,2012-11-14 22:54:00
4:54 PM,57.0,-2.9,9,30.07,10.0,East,3.5,-,N/A,,Clear,90,2012-11-14 23:54:00
5:54 PM,43.0,-2.9,15,30.13,10.0,WSW,5.8,-,N/A,,Clear,250,2012-11-15 00:54:00
6:54 PM,37.0,-2.9,18,30.15,10.0,NW,11.5,-,N/A,,Clear,310,2012-11-15 01:54:00
7:54 PM,41.0,-2.0,16,30.10,10.0,West,9.2,-,N/A,,Clear,280,2012-11-15 02:54:00
8:54 PM,37.0,-5.1,17,30.11,10.0,WSW,15.0,-,N/A,,Clear,240,2012-11-15 03:54:00
9:54 PM,35.1,-5.1,18,30.08,10.0,West,11.5,-,N/A,,Clear,270,2012-11-15 04:54:00
10:54 PM,34.0,-4.0,20,30.07,10.0,West,13.8,-,N/A,,Clear,260,2012-11-15 05:54:00
11:54 PM,32.0,-4.0,21,30.08,10.0,WNW,15.0,-,N/A,,Clear,290,2012-11-15 06:54:00